This demonstration page uses our WeatherBlox Daily Observations layout. Learn more.

Left ArrowRight Arrow

Hourly Observations for May 27, 2021

Temp ( °F °C ) Dew Point ( °F °C ) Humidity (%) Winds ( mph kmh ) Pressure ( in mb ) Visibility ( mi km ) Precip ( " mm )
12:56 am 00:56 Cloudy with Light Rain 60 15.6 58 14.4 93 93 E 24 39 29.90 1012 10 16 0.09 2.29
1:56 am 01:56 Mostly Cloudy 60 15.6 59 15 96 96 E 15 24 29.85 1011 10 16 0.00 0.00
2:23 am 02:23 Mostly Cloudy 61 16 59 15 94 94 S 5 7 29.90 1012 10 16 0.00 0.00
2:46 am 02:46 Cloudy 61 16 57 14 88 88 S 8 13 29.92 1013 10 16 0.00 0.00
2:56 am 02:56 Cloudy with Light Rain 60 15.6 58 14.4 93 93 SSE 6 9 29.90 1013 10 16 0.00 0.00
3:03 am 03:03 Cloudy with Light Rain 61 16 57 14 88 88 Calm 29.92 1013 10 16 0.00 0.00
3:45 am 03:45 Mostly Cloudy with Light Rain 61 16 59 15 94 94 ESE 16 26 29.79 1009 10 16 0.01 0.25
3:56 am 03:56 Partly Cloudy 60 15.6 58 14.4 93 93 ESE 13 20 29.79 1009 10 16 0.01 0.25
4:07 am 04:07 Partly Cloudy 61 16 59 15 94 94 Calm 29.81 1009 10 16 0.00 0.00
4:25 am 04:25 Mostly Cloudy 61 16 59 15 94 94 SW 5 7 29.82 1010 10 16 0.00 0.00
4:56 am 04:56 Cloudy 61 16.1 59 15 93 93 SW 10 17 29.83 1010 10 16 0.00 0.00
5:27 am 05:27 Partly Cloudy 61 16 59 15 94 94 W 6 9 29.84 1010 10 16 0.00 0.00
5:56 am 05:56 Clear 60 15.6 59 15 96 96 WNW 9 15 29.86 1011 10 16 0.00 0.00
6:39 am 06:39 Partly Cloudy 61 16 59 15 94 94 NW 10 17 29.89 1012 10 16 0.00 0.00
6:56 am 06:56 Mostly Sunny 60 15.6 58 14.4 93 93 NNW 12 19 29.90 1013 10 16 0.00 0.00
7:21 am 07:21 Mostly Cloudy 61 16 57 14 88 88 NNW 9 15 29.92 1013 10 16 0.00 0.00
7:39 am 07:39 Mostly Cloudy 61 16 57 14 88 88 NNW 9 15 29.92 1013 10 16 0.00 0.00
7:56 am 07:56 Mostly Cloudy 60 15.6 58 14.4 93 93 NNW 15 24 29.94 1014 10 16 0.00 0.00
8:03 am 08:03 Mostly Cloudy 61 16 57 14 88 88 NNW 16 26 29.93 1013 10 16 0.00 0.00
8:56 am 08:56 Cloudy 59 15 56 13.3 90 90 NNW 21 33 29.96 1015 10 16 0.00 0.00
9:56 am 09:56 Partly Cloudy 58 14.4 51 10.6 78 78 NNW 31 50 29.96 1015 10 16 0.00 0.00
10:56 am 10:56 Partly Cloudy 60 15.6 51 10.6 72 72 NNW 26 43 29.99 1016 10 16 0.00 0.00
11:56 am 11:56 Mostly Sunny 61 16.1 51 10.6 70 70 NW 21 33 30.01 1016 10 16 0.00 0.00
12:29 pm 12:29 Mostly Cloudy 63 17 52 11 68 68 NW 23 37 29.99 1016 10 16 0.00 0.00
12:56 pm 12:56 Mostly Sunny 62 16.7 51 10.6 67 67 NNW 20 31 30.02 1017 10 16 0.00 0.00
1:16 pm 13:16 Mostly Cloudy 63 17 50 10 64 64 NNW 16 26 30.00 1016 10 16 0.00 0.00
1:52 pm 13:52 Partly Cloudy 63 17 52 11 68 68 NNW 20 31 29.99 1016 10 16 0.00 0.00
1:56 pm 13:56 Mostly Cloudy 63 17.2 51 10.6 65 65 NNW 20 31 30.01 1016 10 16 0.00 0.00
2:19 pm 14:19 Partly Cloudy 64 18 52 11 64 64 NNW 17 28 29.98 1015 10 16 0.00 0.00
2:56 pm 14:56 Sunny 65 18.3 50 10 59 59 NNW 20 31 30.00 1016 10 16 0.00 0.00
3:56 pm 15:56 Partly Cloudy 66 18.9 49 9.4 54 54 NNW 22 35 29.99 1016 10 16 0.00 0.00
4:56 pm 16:56 Mostly Sunny 65 18.3 49 9.4 56 56 N 24 39 29.99 1016 10 16 0.00 0.00
5:56 pm 17:56 Sunny 64 17.8 48 8.9 56 56 N 20 31 30.01 1016 10 16 0.00 0.00
6:56 pm 18:56 Sunny 61 16.1 48 8.9 63 63 N 21 33 30.03 1017 10 16 0.00 0.00
7:56 pm 19:56 Sunny 57 13.9 47 8.3 69 69 N 21 33 30.05 1018 10 16 0.00 0.00
8:56 pm 20:56 Sunny 53 11.7 45 7.2 74 74 N 17 28 30.07 1018 10 16 0.00 0.00
9:56 pm 21:56 Clear 51 10.6 45 7.2 80 80 N 12 19 30.09 1019 10 16 0.00 0.00
10:56 pm 22:56 Partly Cloudy 50 10 45 7.2 83 83 NNW 8 13 30.12 1020 10 16 0.00 0.00
11:56 pm 23:56 Mostly Clear 50 10 45 7.2 83 83 N 12 19 30.12 1020 10 16 0.00 0.00

Powered by AerisWeather